Zurück zum Katalog

STARLINK-33828

AktivKommunikationVLEO
NORAD 63493·PAYLOAD·🇺🇸 United States

Gestartet Apr 7, 2025 von Vandenberg Space Force Base

Loading…

Nächste Überflüge (nächste 24 Stunden)

TLE

AktuellSource: CelesTrak SupGP

Epoche: Sep 15, 2026, 03:39 UTC

1 63493C 25071A   26258.15256944  .00058822  00000+0  17377-2 0  2588
2 63493  53.1593 335.0492 0001103  97.7288 343.5246 15.34365864    18

Verfolge STARLINK-33828 in Echtzeit mit AllMySat

Download on the App Store